User: anonymous   Login
Location: Ash Swamp
(41.5170°N, 74.6157°W)
Time: 08:56:48
(UTC+00:00)
Language:

NPP - Orbit

View from above orbital plane
View from above orbital plane
View from above satellite
View from above satellite

Ground track
Ground track

The orbit data is extracted from the following two-line orbital elements,

1 37849U 11061A   20265.89808306 +.00000007 +00000-0 +24099-4 0  9992
2 37849 098.7410 202.5466 0001079 061.1064 010.2495 14.19544524461317
Epoch (UTC): 21 September 2020 21:33:14
Eccentricity: 0.0001079
inclination: 98.7410°
perigee height: 826 km
apogee height: 827 km
right ascension of ascending node: 202.5466°
argument of perigee: 61.1064°
revolutions per day: 14.19544524
mean anomaly at epoch: 10.2495°
orbit number at epoch: 46131

The dashed part of the orbit path shows where the satellite is in the earth's shadow,  

DLR